Weather History for V.C. Bird, Antigua

Change the Weather History Date:

Tuesday, November 13, 2012

  Actual Average Record
Temperature  
Mean Temperature 79 °F -  
Max Temperature 84 °F 83 °F 89 °F (1997)
Min Temperature 74 °F 74 °F 73 °F (1999)
Cooling Degree Days 14    
Growing Degree Days 29 (Base 50)    
Moisture  
Dew Point 74 °F    
Average Humidity 79    
Maximum Humidity 94    
Minimum Humidity 68    
Precipitation  
Precipitation 0.00 in - - ()
Sea Level Pressure  
Sea Level Pressure 29.90 in    
Wind  
Wind Speed 10 mph ()    
Max Wind Speed 16 mph    
Max Gust Speed -    
Visibility 8.6 miles    
Events Rain    
Averages and records for this station are not official NWS values.
T = Trace of Precipitation, MM = Missing Value Source: Averaged Metar Reports

Daily Weather History Graph

Daily Weather History Graph

Search for Another Location

Airport:

Trip Planner

Search our weather history database for the weather conditions in past years. The results will help you decide how hot, cold, wet, or windy it might be!

Date:

Astronomy

Nov. 13, 2012 Rise Set
Actual Time 6:10 AM AST 5:31 PM AST
Civil Twilight 5:48 AM AST 5:54 PM AST
Nautical Twilight 5:21 AM AST 6:20 PM AST
Astronomical Twilight 4:56 AM AST 6:46 PM AST
Moon 5:42 AM AST (11/13) 5:24 PM AST (11/13)
Length of Visible Light 12h 06m
Length of Day
11h 21m
Waning Crescent, 0% of the Moon is Illuminated
Nov 13
Waning Crescent
Nov 13
New
Nov 20
First Quarter
Nov 28
Full
Dec 6
Last Quarter

Hourly Weather History & Observations

Time (AST) Temp. Heat Index Dew Point Humidity Pressure Visibility Wind Dir Wind Speed Gust Speed Precip Events Conditions
12:00 AM 80.6 °F 85.4 °F 73.4 °F 79% 29.89 in 6.2 mi ESE 6.9 mph - N/A   Partly Cloudy
1:00 AM 80.6 °F 85.4 °F 73.4 °F 79% 29.89 in 6.2 mi ESE 12.7 mph - N/A   Partly Cloudy
2:00 AM 80 °F - 72 °F 70% 29.88 in 17 mi East 11.5 mph - -   Widespread Dust
2:00 AM 80.6 °F 84.6 °F 71.6 °F 74% 29.86 in 6.2 mi East 11.5 mph - N/A   Partly Cloudy
3:00 AM 77.0 °F - 71.6 °F 83% 29.86 in 6.2 mi SE 13.8 mph - N/A   Mostly Cloudy
4:00 AM 75.2 °F - 71.6 °F 89% 29.86 in 6.2 mi ENE 5.8 mph - N/A Rain Light Rain
5:00 AM 75 °F - 72 °F 89% 29.87 in 17 mi Calm Calm - -   Widespread Dust
5:00 AM 75.2 °F - 71.6 °F 89% 29.86 in 6.2 mi East 13.8 mph - N/A Rain Light Rain Showers
6:00 AM 75.2 °F - 73.4 °F 94% 29.86 in 6.2 mi Calm Calm - N/A   Mostly Cloudy
7:00 AM 75.2 °F - 73.4 °F 94% 29.92 in 6.2 mi Calm Calm - N/A   Scattered Clouds
8:00 AM 81 °F - 75 °F 76% 29.92 in 16 mi ESE 13.8 mph - -   Mostly Cloudy
8:00 AM 80.6 °F 86.2 °F 75.2 °F 84% 29.92 in 6.2 mi ESE 13.8 mph - N/A   Scattered Clouds
9:00 AM 82.4 °F 89.5 °F 75.2 °F 79% 29.95 in 6.2 mi ESE 15.0 mph - N/A   Scattered Clouds
10:00 AM 82.4 °F 88.2 °F 73.4 °F 74% 29.95 in 6.2 mi East 16.1 mph - N/A   Mostly Cloudy
11:00 AM 82.4 °F 88.2 °F 73.4 °F 74% 29.95 in 6.2 mi East 13.8 mph - N/A   Mostly Cloudy
12:00 PM 84.2 °F 90.9 °F 73.4 °F 70% 29.92 in 6.2 mi East 11.5 mph - N/A   Scattered Clouds
1:00 PM 84.2 °F 90.9 °F 73.4 °F 70% 29.89 in 6.2 mi ESE 12.7 mph - N/A   Scattered Clouds
2:00 PM 84 °F - 75 °F 68% 29.90 in 17 mi East 13.8 mph - -   Widespread Dust
2:00 PM 84.2 °F 92.3 °F 75.2 °F 74% 29.89 in 6.2 mi East 13.8 mph - N/A   Scattered Clouds
3:00 PM 84.2 °F 92.3 °F 75.2 °F 74% 29.86 in 6.2 mi East 11.5 mph - N/A   Scattered Clouds
4:00 PM 82.4 °F 89.5 °F 75.2 °F 79% 29.86 in 6.2 mi East 10.4 mph - N/A   Scattered Clouds
5:00 PM 81 °F - 74 °F 75% 29.89 in 17 mi ESE 15.0 mph - -   Widespread Dust
5:00 PM 80.6 °F 86.2 °F 75.2 °F 84% 29.89 in 6.2 mi ESE 15.0 mph - N/A   Scattered Clouds
6:00 PM 80.6 °F 85.4 °F 73.4 °F 79% 29.89 in 6.2 mi ESE 12.7 mph - N/A   Scattered Clouds
7:00 PM 80.6 °F 86.2 °F 75.2 °F 84% 29.89 in 6.2 mi ESE 15.0 mph - N/A   Scattered Clouds
8:00 PM 81 °F - 74 °F 74% 29.91 in 17 mi ESE 15.0 mph - -   Widespread Dust
8:00 PM 80.6 °F 85.4 °F 73.4 °F 79% 29.89 in 6.2 mi ESE 15.0 mph - N/A   Scattered Clouds
9:00 PM 80.6 °F 85.4 °F 73.4 °F 79% 29.89 in 6.2 mi ESE 13.8 mph - N/A   Scattered Clouds
10:00 PM 80.6 °F 85.4 °F 73.4 °F 79% 29.92 in 6.2 mi ESE 16.1 mph - N/A   Scattered Clouds
11:00 PM 81 °F - 73 °F 71% 29.92 in 17 mi ESE 13.8 mph - -   Widespread Dust
11:00 PM 80.6 °F 85.4 °F 73.4 °F 79% 29.92 in 6.2 mi ESE 13.8 mph - N/A   Partly Cloudy